Flag for Germany Weather past 2 weeks in Amberg, Bavaria, Germany

Now
21 °F

Overcast.


Feels Like: 21 °F
Forecast: 28 / 33 °F
Wind: No wind

Location: Hohenfels

Current Time: Feb 1, 2015 at 7:25:56 AM

Latest Report: Feb 1, 2015 at 6:58 AM


Visibility: N/A

Pressure: 29.28 "Hg

Humidity: 94%

Dew point: 20 °F

Location of AmbergLocation

Historic Weather in Amberg — Graph

°F

Amberg temperature yesterday

Maximum temperature yesterday: 33 °F (at 2:58 PM)
Minimum temperature yesterday: 24 °F (at 11:58 PM)
Average temperature yesterday: 29 °F

Past Weeks' High & Low Weather Summary

 TemperatureHumidityPressure
High38 °F (Jan 17, 1:58 PM)100% (Jan 17, 2:58 PM)30.41 "Hg (Jan 17, 2:58 PM)
Low18 °F (Feb 1, 5:58 AM)69% (Jan 29, 11:58 AM)28.75 "Hg (Jan 30, 5:00 AM)
Average32 °F91%29.85 "Hg
* Reported Jan 17 5:58 AM — Feb 1 5:58 AM, Amberg, Weather by CustomWeather, © 2014

Note: Actual official high and low records may vary slightly from our data, if they occured in-between our weather recording intervals... More about our weather records

Advertising

Amberg weather history for previous 24 hours

 ConditionsComfort  
Time TempWeatherWind HumidityBarometerVisibility
5:58 AM
Feb 1
18 °FClear.No wind93%29.29 "HgN/A
4:58 AM22 °FIce fog.2 mph94%29.26 "Hg4 mi
3:58 AM25 °FIce fog.2 mph93%29.25 "Hg1 mi
2:58 AM28 °FPassing clouds.2 mph93%29.24 "HgN/A
1:58 AM28 °FMostly cloudy.No wind93%29.23 "HgN/A
12:58 AM26 °FLight freezing rain. Mostly cloudy.No wind96%29.23 "HgN/A
11:58 PM
Jan 31
24 °FMostly cloudy.No wind96%29.24 "HgN/A
10:58 PM25 °FPartly cloudy.No wind93%29.23 "HgN/A
9:58 PM25 °FClear.No wind93%29.23 "HgN/A
8:58 PM25 °FPassing clouds.2 mph96%29.23 "HgN/A
7:58 PM26 °FMostly cloudy.No wind96%29.23 "HgN/A
6:58 PM27 °FPassing clouds.2 mph93%29.21 "HgN/A
5:58 PM27 °FClear.2 mph100%29.19 "HgN/A
4:58 PM31 °FPassing clouds.1 mph90%29.16 "HgN/A
4:04 PM32 °FMore clouds than sun.3 mph87%29.08 "HgN/A
3:58 PM33 °FCloudy.5 mph85%29.15 "HgN/A
3:03 PM32 °FScattered clouds.3 mph87%29.07 "HgN/A
2:58 PM33 °FPartly sunny.3 mph84%29.14 "HgN/A
1:58 PM32 °FLight snow. Overcast.5 mph87%29.13 "Hg4 mi
12:58 PM32 °FOvercast.8 mph80%29.13 "HgN/A
11:58 AM33 °FOvercast.5 mph83%29.12 "HgN/A
10:58 AM31 °FLight snow. Overcast.7 mph85%29.10 "HgN/A
10:03 AM32 °FLight snow. Ice fog.5 mph87%29.02 "Hg2 mi
9:58 AM31 °FLight snow. Ice fog.6 mph87%29.08 "Hg3 mi
8:58 AM28 °FLight snow. Overcast.5 mph93%29.09 "HgN/A
7:58 AM28 °FMostly cloudy.5 mph93%29.08 "HgN/A
Weather by CustomWeather, © 2014

See weather overviewHow to use our weather pages